When you browse on this site, cookies collect data to enhance your experience and personalize the content and advertising you see.
Visit our Privacy Policy to learn more. By continuing to use the site, you agree to this use of cookies and data.
  • In United Kingdom
  • List of Countries
  • For 7 days
  • Water Temperature
  • Weather Map
  • Weather Widgets
  • user-avatar
    Login

    Hourly Weather Matlock

    Today, 12 November, Tuesday

    Time Temperature Precipitation Wind Pressure Humidity
    00:00 +2°C° 0 mm 6 mps 731 mmHg 82%
    01:00 +2°C° 0 mm 6 mps 731 mmHg 81%
    02:00 +2°C° 0 mm 6 mps 730 mmHg 81%
    03:00 +2°C° 0 mm 6 mps 730 mmHg 80%
    04:00 +2°C° 0 mm 7 mps 730 mmHg 80%
    05:00 +2°C° 0 mm 7 mps 730 mmHg 79%
    06:00 +2°C° 0 mm 7 mps 730 mmHg 78%
    07:00 +1°C° 0.2 mm 8 mps 729 mmHg 80%
    08:00 +1°C° 0.2 mm 8 mps 729 mmHg 81%
    09:00 +1°C° 0.2 mm 9 mps 729 mmHg 83%
    10:00 +2°C° 0.4 mm 8 mps 729 mmHg 83%
    11:00 +4°C° 0.4 mm 7 mps 729 mmHg 82%
    12:00 +4°C° 0.4 mm 6 mps 729 mmHg 82%
    13:00 +4°C° 0 mm 6 mps 729 mmHg 82%
    14:00 +5°C° 0 mm 6 mps 729 mmHg 81%
    15:00 +6°C° 0 mm 5 mps 729 mmHg 80%
    16:00 +5°C° 0 mm 5 mps 730 mmHg 82%
    17:00 +3°C° 0 mm 5 mps 730 mmHg 83%
    18:00 +4°C° 0 mm 4 mps 731 mmHg 85%
    19:00 +3°C° 0 mm 4 mps 732 mmHg 85%
    20:00 +3°C° 0 mm 4 mps 732 mmHg 86%
    21:00 +3°C° 0 mm 3 mps 733 mmHg 86%
    22:00 +2°C° 0 mm 3 mps 733 mmHg 86%
    23:00 +2°C° 0 mm 3 mps 733 mmHg 86%

    Tomorrow, 13 November, Wednesday

    Time Temperature Precipitation Wind Pressure Humidity
    00:00 +3°C° 0 mm 2 mps 734 mmHg 87%
    01:00 +2°C° 0 mm 3 mps 733 mmHg 88%
    02:00 +2°C° 0 mm 3 mps 733 mmHg 89%
    03:00 +2°C° 0 mm 3 mps 733 mmHg 91%
    04:00 +2°C° 0 mm 3 mps 733 mmHg 91%
    05:00 +1°C° 0 mm 4 mps 733 mmHg 92%
    06:00 +1°C° 0 mm 4 mps 733 mmHg 92%
    07:00 +1°C° 0 mm 4 mps 733 mmHg 92%
    08:00 +2°C° 0 mm 3 mps 733 mmHg 91%
    09:00 +2°C° 0 mm 3 mps 732 mmHg 90%
    10:00 +3°C° 0 mm 3 mps 732 mmHg 88%
    11:00 +4°C° 0 mm 3 mps 731 mmHg 85%
    12:00 +4°C° 0 mm 3 mps 731 mmHg 82%
    13:00 +4°C° 0 mm 3 mps 730 mmHg 83%
    14:00 +4°C° 0 mm 3 mps 729 mmHg 83%
    15:00 +5°C° 0 mm 2 mps 729 mmHg 84%
    16:00 +4°C° 0 mm 2 mps 728 mmHg 86%
    17:00 +4°C° 0 mm 2 mps 728 mmHg 88%
    18:00 +3°C° 0 mm 2 mps 727 mmHg 89%
    19:00 +2°C° 0 mm 3 mps 727 mmHg 90%
    20:00 0°C° 0 mm 4 mps 727 mmHg 90%
    21:00 0°C° 0 mm 4 mps 726 mmHg 91%
    22:00 0°C° 0 mm 5 mps 727 mmHg 90%
    23:00 +1°C° 0 mm 6 mps 727 mmHg 88%

    Day after tomorrow, 14 November, Thursday

    Time Temperature Precipitation Wind Pressure Humidity
    00:00 +1°C° 0 mm 6 mps 727 mmHg 87%
    01:00 0°C° 0.1 mm 7 mps 727 mmHg 86%
    02:00 0°C° 0.1 mm 7 mps 727 mmHg 85%
    03:00 0°C° 0.1 mm 7 mps 727 mmHg 84%
    04:00 +1°C° 0.4 mm 8 mps 728 mmHg 86%
    05:00 +1°C° 0.4 mm 8 mps 728 mmHg 87%
    06:00 +1°C° 0.4 mm 8 mps 728 mmHg 89%
    07:00 +1°C° 2 mm 8 mps 729 mmHg 91%
    08:00 +1°C° 2 mm 8 mps 729 mmHg 92%
    09:00 +1°C° 2 mm 8 mps 729 mmHg 93%
    10:00 +2°C° 1.7 mm 7 mps 730 mmHg 93%
    11:00 +2°C° 1.7 mm 6 mps 730 mmHg 94%
    12:00 +2°C° 1.7 mm 5 mps 731 mmHg 94%
    13:00 +3°C° 1.1 mm 4 mps 731 mmHg 93%
    14:00 +3°C° 1.1 mm 4 mps 731 mmHg 93%
    15:00 +3°C° 1.1 mm 3 mps 732 mmHg 93%
    16:00 +2°C° 0.2 mm 3 mps 732 mmHg 93%
    17:00 +2°C° 0.2 mm 3 mps 733 mmHg 94%
    18:00 +2°C° 0.2 mm 3 mps 734 mmHg 94%
    19:00 +2°C° 0 mm 3 mps 735 mmHg 94%
    20:00 0°C° 0 mm 4 mps 736 mmHg 93%
    21:00 0°C° 0 mm 4 mps 736 mmHg 93%
    22:00 0°C° 0 mm 4 mps 737 mmHg 93%
    23:00 0°C° 0 mm 4 mps 738 mmHg 93%

    15 November, Friday

    Time Temperature Precipitation Wind Pressure Humidity
    00:00 0°C° 0 mm 4 mps 738 mmHg 93%
    01:00 +1°C° 0 mm 4 mps 739 mmHg 93%
    02:00 +1°C° 0 mm 4 mps 739 mmHg 93%
    03:00 +1°C° 0 mm 4 mps 739 mmHg 92%
    04:00 +1°C° 0.1 mm 4 mps 739 mmHg 92%
    05:00 +2°C° 0.1 mm 5 mps 740 mmHg 91%
    06:00 +2°C° 0.1 mm 5 mps 740 mmHg 91%
    07:00 +2°C° 0 mm 5 mps 740 mmHg 91%
    08:00 +3°C° 0 mm 5 mps 741 mmHg 90%
    09:00 +3°C° 0 mm 6 mps 741 mmHg 90%
    10:00 +4°C° 0.1 mm 6 mps 741 mmHg 86%
    11:00 +4°C° 0.1 mm 6 mps 741 mmHg 82%
    12:00 +5°C° 0.1 mm 7 mps 741 mmHg 78%
    13:00 +5°C° 0.1 mm 7 mps 740 mmHg 78%
    14:00 +4°C° 0.1 mm 7 mps 740 mmHg 78%
    15:00 +4°C° 0.1 mm 7 mps 740 mmHg 78%
    16:00 +4°C° 0 mm 7 mps 739 mmHg 79%
    17:00 +4°C° 0 mm 7 mps 739 mmHg 80%
    18:00 +4°C° 0 mm 8 mps 739 mmHg 81%
    19:00 +4°C° 0.1 mm 8 mps 739 mmHg 82%
    20:00 +3°C° 0.1 mm 9 mps 739 mmHg 83%
    21:00 +3°C° 0.1 mm 9 mps 738 mmHg 84%
    22:00 +3°C° 0.7 mm 9 mps 738 mmHg 85%
    23:00 +3°C° 0.7 mm 9 mps 738 mmHg 86%

    16 November, Saturday

    Time Temperature Precipitation Wind Pressure Humidity
    00:00 +3°C° 0.7 mm 9 mps 738 mmHg 88%
    01:00 +4°C° 1.2 mm 8 mps 738 mmHg 89%
    02:00 +4°C° 1.2 mm 8 mps 738 mmHg 90%
    03:00 +5°C° 1.2 mm 7 mps 738 mmHg 92%
    04:00 +4°C° 0.6 mm 6 mps 738 mmHg 92%
    05:00 +5°C° 0.6 mm 5 mps 738 mmHg 93%
    06:00 +5°C° 0.6 mm 4 mps 738 mmHg 93%
    07:00 +5°C° 0.6 mm 4 mps 738 mmHg 93%
    08:00 +5°C° 0.6 mm 4 mps 739 mmHg 93%
    09:00 +5°C° 0.6 mm 4 mps 739 mmHg 93%
    10:00 +6°C° 0.5 mm 4 mps 739 mmHg 93%
    11:00 +6°C° 0.5 mm 4 mps 739 mmHg 93%
    12:00 +7°C° 0.5 mm 3 mps 738 mmHg 92%
    13:00 +7°C° 0.3 mm 3 mps 738 mmHg 92%
    14:00 +7°C° 0.3 mm 3 mps 738 mmHg 92%
    15:00 +6°C° 0.3 mm 4 mps 738 mmHg 92%
    16:00 +7°C° 0.2 mm 3 mps 738 mmHg 92%
    17:00 +7°C° 0.2 mm 3 mps 738 mmHg 93%
    18:00 +5°C° 0.2 mm 3 mps 738 mmHg 94%
    19:00 +5°C° 0.1 mm 3 mps 739 mmHg 93%
    20:00 +7°C° 0.1 mm 3 mps 739 mmHg 93%
    21:00 +7°C° 0.1 mm 3 mps 739 mmHg 92%
    22:00 +5°C° 0.1 mm 3 mps 739 mmHg 92%
    23:00 +5°C° 0.1 mm 4 mps 740 mmHg 91%

    17 November, Sunday

    Time Temperature Precipitation Wind Pressure Humidity
    00:00 +5°C° 0.1 mm 4 mps 740 mmHg 91%
    01:00 +5°C° 0 mm 4 mps 740 mmHg 90%
    02:00 +5°C° 0 mm 4 mps 740 mmHg 90%
    03:00 +5°C° 0 mm 4 mps 740 mmHg 90%
    04:00 +5°C° 0 mm 4 mps 741 mmHg 90%
    05:00 +4°C° 0 mm 4 mps 741 mmHg 91%
    06:00 +4°C° 0 mm 4 mps 741 mmHg 92%
    07:00 +3°C° 0 mm 5 mps 742 mmHg 90%
    08:00 +5°C° 0 mm 5 mps 742 mmHg 89%
    09:00 +5°C° 0 mm 5 mps 743 mmHg 88%
    10:00 +5°C° 0 mm 5 mps 743 mmHg 86%
    11:00 +5°C° 0 mm 5 mps 743 mmHg 84%
    12:00 +5°C° 0 mm 5 mps 743 mmHg 82%
    13:00 +5°C° 0 mm 5 mps 743 mmHg 83%
    14:00 +5°C° 0 mm 5 mps 743 mmHg 83%
    15:00 +5°C° 0 mm 5 mps 743 mmHg 84%
    16:00 +3°C° 0 mm 5 mps 743 mmHg 83%
    17:00 +3°C° 0 mm 5 mps 743 mmHg 83%
    18:00 +3°C° 0 mm 5 mps 743 mmHg 82%
    19:00 +3°C° 0 mm 4 mps 743 mmHg 83%
    20:00 +3°C° 0 mm 4 mps 743 mmHg 83%
    21:00 +3°C° 0 mm 4 mps 743 mmHg 84%
    22:00 +3°C° 0 mm 4 mps 743 mmHg 84%
    23:00 +3°C° 0 mm 3 mps 742 mmHg 85%
    Show more